sat.trackr.live / text

‹ back to catalog

FIRESAT2

NORAD 69873 · 2026-156E

PAYLOAD ACTIVE UNKNOWN

§ Identity

Operator
Country
US
Launch date
2026-07-07
Launch site
AFWTR
Launch vehicle
Mass (kg)
RCS (m²)

External: N2YO · Heavens-Above · Gunter

§ Orbital elements

Epoch: 2026-09-20T03:39:14.173632Z

Period
96.67 min
Inclination
97.7669°
Eccentricity
0.0004788
Mean motion
14.89650757 rev/d
Perigee alt
595.7 km
Apogee alt
602.4 km
Semi-major
6,977.2 km
B*
5.7466e-5
RAAN
162.3352°
Arg perigee
264.8139°
Mean anomaly
95.2532°
Rev number
1,115

§ Raw data

FIRESAT21 69873U 26156E   26263.15224738  .00000495  00000+0  57466-4 0  99932 69873  97.7669 162.3352 0004788 264.8139  95.2532 14.89650757 11157

JSON: /api/v1/satellites/69873 · /tle

For live sub-satellite position, see the globe view (requires WebGL).

§ Visibility from observer

Set your observer location to see the next 7 days of passes ≥ 10°. The values pass through the URL so the page stays shareable.

No JS? Fill the form by hand. The geolocation button needs JavaScript.